Year,Month,Day,Hour,Minute,Value (Times are PST for barometer in hPa)
2015,12,09,00,00,993.70
2015,12,09,00,01,993.70
2015,12,09,00,02,993.70
2015,12,09,00,03,993.70
2015,12,09,00,04,993.70
2015,12,09,00,05,993.70
2015,12,09,00,06,993.70
2015,12,09,00,07,993.70
2015,12,09,00,08,993.70
2015,12,09,00,09,993.70
2015,12,09,00,10,993.70
2015,12,09,00,11,993.70
2015,12,09,00,12,993.70
2015,12,09,00,13,993.50
2015,12,09,00,14,993.50
2015,12,09,00,15,993.50
2015,12,09,00,16,993.50
2015,12,09,00,17,993.50
2015,12,09,00,18,993.50
2015,12,09,00,19,993.50
2015,12,09,00,20,993.50
2015,12,09,00,21,993.50
2015,12,09,00,22,993.50
2015,12,09,00,23,993.50
2015,12,09,00,24,993.50
2015,12,09,00,25,993.50
2015,12,09,00,26,993.50
2015,12,09,00,28,993.10
2015,12,09,00,29,993.10
2015,12,09,00,30,993.10
2015,12,09,00,31,993.10
2015,12,09,00,32,993.10
2015,12,09,00,33,993.10
2015,12,09,00,34,993.10
2015,12,09,00,35,993.10
2015,12,09,00,36,993.10
2015,12,09,00,37,993.10
2015,12,09,00,38,993.10
2015,12,09,00,39,993.10
2015,12,09,00,40,993.10
2015,12,09,00,41,993.10
2015,12,09,00,42,993.10
2015,12,09,00,43,993.50
2015,12,09,00,44,993.50
2015,12,09,00,45,993.50
2015,12,09,00,46,993.50
2015,12,09,00,47,993.50
2015,12,09,00,48,993.50
2015,12,09,00,49,993.50
2015,12,09,00,50,993.50
2015,12,09,00,51,993.50
2015,12,09,00,52,993.50
2015,12,09,00,53,993.50
2015,12,09,00,54,993.50
2015,12,09,00,56,993.50
2015,12,09,00,57,993.50
2015,12,09,00,58,992.40
2015,12,09,00,59,992.40
2015,12,09,01,00,992.40
2015,12,09,01,01,992.40
2015,12,09,01,02,992.40
2015,12,09,01,05,992.40
2015,12,09,01,06,992.40
2015,12,09,01,08,992.40
2015,12,09,01,09,992.40
2015,12,09,01,10,992.40
2015,12,09,01,12,992.40
2015,12,09,01,13,992.40
2015,12,09,01,14,992.40
2015,12,09,01,15,992.40
2015,12,09,01,16,992.40
2015,12,09,01,17,992.40
2015,12,09,01,18,992.40
2015,12,09,01,20,992.40
2015,12,09,01,21,992.40
2015,12,09,01,22,992.40
2015,12,09,01,23,992.40
2015,12,09,01,24,992.40
2015,12,09,01,25,992.40
2015,12,09,01,26,992.40
2015,12,09,01,27,992.40
2015,12,09,01,28,992.20
2015,12,09,01,29,992.20
2015,12,09,01,31,992.20
2015,12,09,01,32,992.20
2015,12,09,01,33,992.20
2015,12,09,01,34,992.20
2015,12,09,01,36,992.20
2015,12,09,01,37,992.20
2015,12,09,01,38,992.20
2015,12,09,01,39,992.20
2015,12,09,01,40,992.20
2015,12,09,01,41,992.20
2015,12,09,01,42,992.20
2015,12,09,01,45,991.70
2015,12,09,01,46,991.70
2015,12,09,01,47,991.70
2015,12,09,01,49,991.70
2015,12,09,01,50,991.70
2015,12,09,01,51,991.70
2015,12,09,01,52,991.70
2015,12,09,01,53,991.70
2015,12,09,01,54,991.70
2015,12,09,01,55,991.70
2015,12,09,01,56,991.70
2015,12,09,01,59,992.00
2015,12,09,02,00,992.00
2015,12,09,02,01,992.00
2015,12,09,02,02,992.00
2015,12,09,02,03,992.00
2015,12,09,02,05,992.00
2015,12,09,02,06,992.00
2015,12,09,02,07,992.00
2015,12,09,02,08,992.00
2015,12,09,02,09,992.00
2015,12,09,02,10,992.00
2015,12,09,02,11,992.00
2015,12,09,02,12,992.00
2015,12,09,02,13,991.90
2015,12,09,02,16,991.90
2015,12,09,02,17,991.90
2015,12,09,02,18,991.90
2015,12,09,02,19,991.90
2015,12,09,02,20,991.90
2015,12,09,02,21,991.90
2015,12,09,02,22,991.90
2015,12,09,02,23,991.90
2015,12,09,02,24,991.90
2015,12,09,02,25,991.90
2015,12,09,02,26,991.90
2015,12,09,02,27,991.90
2015,12,09,02,28,991.90
2015,12,09,02,29,992.10
2015,12,09,02,30,992.10
2015,12,09,02,31,992.10
2015,12,09,02,32,992.10
2015,12,09,02,33,992.10
2015,12,09,02,34,992.10
2015,12,09,02,35,992.10
2015,12,09,02,37,992.10
2015,12,09,02,38,992.10
2015,12,09,02,39,992.10
2015,12,09,02,40,992.10
2015,12,09,02,41,992.10
2015,12,09,02,42,992.10
2015,12,09,02,43,992.10
2015,12,09,02,44,991.70
2015,12,09,02,45,991.70
2015,12,09,02,46,991.70
2015,12,09,02,47,991.70
2015,12,09,02,48,991.70
2015,12,09,02,50,991.70
2015,12,09,02,51,991.70
2015,12,09,02,53,991.70
2015,12,09,02,55,991.70
2015,12,09,02,56,991.70
2015,12,09,02,57,991.70
2015,12,09,02,58,991.70
2015,12,09,02,59,991.60
2015,12,09,03,00,991.60
2015,12,09,03,01,991.60
2015,12,09,03,02,991.60
2015,12,09,03,03,991.60
2015,12,09,03,04,991.60
2015,12,09,03,05,991.60
2015,12,09,03,06,991.60
2015,12,09,03,07,991.60
2015,12,09,03,09,991.60
2015,12,09,03,10,991.60
2015,12,09,03,11,991.60
2015,12,09,03,12,991.60
2015,12,09,03,13,991.60
2015,12,09,03,14,992.20
2015,12,09,03,15,992.20
2015,12,09,03,16,992.20
2015,12,09,03,17,992.20
2015,12,09,03,20,992.20
2015,12,09,03,21,992.20
2015,12,09,03,22,992.20
2015,12,09,03,24,992.20
2015,12,09,03,25,992.20
2015,12,09,03,26,992.20
2015,12,09,03,27,992.20
2015,12,09,03,28,992.20
2015,12,09,03,29,992.40
2015,12,09,03,30,992.40
2015,12,09,03,31,992.40
2015,12,09,03,32,992.40
2015,12,09,03,33,992.40
2015,12,09,03,35,992.40
2015,12,09,03,36,992.40
2015,12,09,03,37,992.40
2015,12,09,03,38,992.40
2015,12,09,03,39,992.40
2015,12,09,03,40,992.40
2015,12,09,03,41,992.40
2015,12,09,03,42,992.40
2015,12,09,03,43,992.40
2015,12,09,03,44,992.20
2015,12,09,03,45,992.20
2015,12,09,03,46,992.20
2015,12,09,03,47,992.20
2015,12,09,03,50,992.20
2015,12,09,03,51,992.20
2015,12,09,03,52,992.20
2015,12,09,03,53,992.20
2015,12,09,03,54,992.20
2015,12,09,03,55,992.20
2015,12,09,03,56,992.20
2015,12,09,03,57,992.20
2015,12,09,03,58,992.20
2015,12,09,03,59,992.20
2015,12,09,04,00,992.20
2015,12,09,04,01,992.20
2015,12,09,04,02,992.20
2015,12,09,04,03,992.20
2015,12,09,04,04,992.20
2015,12,09,04,05,992.20
2015,12,09,04,07,992.20
2015,12,09,04,08,992.20
2015,12,09,04,09,992.20
2015,12,09,04,10,992.20
2015,12,09,04,11,992.20
2015,12,09,04,12,992.20
2015,12,09,04,13,992.20
2015,12,09,04,14,992.10
2015,12,09,04,15,992.10
2015,12,09,04,16,992.10
2015,12,09,04,17,992.10
2015,12,09,04,18,992.10
2015,12,09,04,19,992.10
2015,12,09,04,20,992.10
2015,12,09,04,21,992.10
2015,12,09,04,22,992.10
2015,12,09,04,24,992.10
2015,12,09,04,26,992.10
2015,12,09,04,27,992.10
2015,12,09,04,28,992.10
2015,12,09,04,29,992.60
2015,12,09,04,30,992.60
2015,12,09,04,31,992.60
2015,12,09,04,32,992.60
2015,12,09,04,33,992.60
2015,12,09,04,34,992.60
2015,12,09,04,35,992.60
2015,12,09,04,36,992.60
2015,12,09,04,37,992.60
2015,12,09,04,38,992.60
2015,12,09,04,39,992.60
2015,12,09,04,40,992.60
2015,12,09,04,41,992.60
2015,12,09,04,42,992.60
2015,12,09,04,43,992.60
2015,12,09,04,44,993.00
2015,12,09,04,46,993.00
2015,12,09,04,47,993.00
2015,12,09,04,48,993.00
2015,12,09,04,50,993.00
2015,12,09,04,51,993.00
2015,12,09,04,52,993.00
2015,12,09,04,53,993.00
2015,12,09,04,54,993.00
2015,12,09,04,55,993.00
2015,12,09,04,56,993.00
2015,12,09,04,58,993.00
2015,12,09,04,59,993.10
2015,12,09,05,00,993.10
2015,12,09,05,01,993.10
2015,12,09,05,02,993.10
2015,12,09,05,03,993.10
2015,12,09,05,04,993.10
2015,12,09,05,05,993.10
2015,12,09,05,06,993.10
2015,12,09,05,07,993.10
2015,12,09,05,08,993.10
2015,12,09,05,09,993.10
2015,12,09,05,10,993.10
2015,12,09,05,11,993.10
2015,12,09,05,12,993.10
2015,12,09,05,13,993.10
2015,12,09,05,14,993.30
2015,12,09,05,15,993.30
2015,12,09,05,16,993.30
2015,12,09,05,17,993.30
2015,12,09,05,18,993.30
2015,12,09,05,19,993.30
2015,12,09,05,20,993.30
2015,12,09,05,21,993.30
2015,12,09,05,22,993.30
2015,12,09,05,23,993.30
2015,12,09,05,24,993.30
2015,12,09,05,25,993.30
2015,12,09,05,26,993.30
2015,12,09,05,27,993.30
2015,12,09,05,28,993.30
2015,12,09,05,29,993.80
2015,12,09,05,30,993.80
2015,12,09,05,33,993.80
2015,12,09,05,34,993.80
2015,12,09,05,35,993.80
2015,12,09,05,36,993.80
2015,12,09,05,37,993.80
2015,12,09,05,38,993.80
2015,12,09,05,39,993.80
2015,12,09,05,40,993.80
2015,12,09,05,41,993.80
2015,12,09,05,42,993.80
2015,12,09,05,43,993.80
2015,12,09,05,44,994.00
2015,12,09,05,45,994.00
2015,12,09,05,47,994.00
2015,12,09,05,48,994.00
2015,12,09,05,49,994.00
2015,12,09,05,50,994.00
2015,12,09,05,51,994.00
2015,12,09,05,52,994.00
2015,12,09,05,53,994.00
2015,12,09,05,54,994.00
2015,12,09,05,55,994.00
2015,12,09,05,57,994.00
2015,12,09,05,58,994.00
2015,12,09,05,59,994.30
2015,12,09,06,00,994.30
2015,12,09,06,01,994.30
2015,12,09,06,02,994.30
2015,12,09,06,03,994.30
2015,12,09,06,04,994.30
2015,12,09,06,05,994.30
2015,12,09,06,06,994.30
2015,12,09,06,07,994.30
2015,12,09,06,08,994.30
2015,12,09,06,09,994.30
2015,12,09,06,10,994.30
2015,12,09,06,11,994.30
2015,12,09,06,12,994.30
2015,12,09,06,13,994.30
2015,12,09,06,14,994.80
2015,12,09,06,15,994.80
2015,12,09,06,16,994.80
2015,12,09,06,17,994.80
2015,12,09,06,18,994.80
2015,12,09,06,19,994.80
2015,12,09,06,20,994.80
2015,12,09,06,21,994.80
2015,12,09,06,22,994.80
2015,12,09,06,23,994.80
2015,12,09,06,24,994.80
2015,12,09,06,25,994.80
2015,12,09,06,26,994.80
2015,12,09,06,27,994.80
2015,12,09,06,28,994.80
2015,12,09,06,29,995.20
2015,12,09,06,30,995.20
2015,12,09,06,31,995.20
2015,12,09,06,32,995.20
2015,12,09,06,33,995.20
2015,12,09,06,34,995.20
2015,12,09,06,35,995.20
2015,12,09,06,36,995.20
2015,12,09,06,37,995.20
2015,12,09,06,39,995.20
2015,12,09,06,40,995.20
2015,12,09,06,41,995.20
2015,12,09,06,42,995.20
2015,12,09,06,43,995.20
2015,12,09,06,44,996.00
2015,12,09,06,45,996.00
2015,12,09,06,46,996.00
2015,12,09,06,47,996.00
2015,12,09,06,48,996.00
2015,12,09,06,49,996.00
2015,12,09,06,50,996.00
2015,12,09,06,51,996.00
2015,12,09,06,52,996.00
2015,12,09,06,53,996.00
2015,12,09,06,54,996.00
2015,12,09,06,55,996.00
2015,12,09,06,56,996.00
2015,12,09,06,57,996.00
2015,12,09,06,58,996.00
2015,12,09,06,59,996.30
2015,12,09,07,00,996.30
2015,12,09,07,01,996.30
2015,12,09,07,02,996.30
2015,12,09,07,03,996.30
2015,12,09,07,04,996.30
2015,12,09,07,05,996.30
2015,12,09,07,06,996.30
2015,12,09,07,07,996.30
2015,12,09,07,08,996.30
2015,12,09,07,09,996.30
2015,12,09,07,10,996.30
2015,12,09,07,14,996.40
2015,12,09,07,15,996.40
2015,12,09,07,16,996.40
2015,12,09,07,19,996.40
2015,12,09,07,20,996.40
2015,12,09,07,21,996.40
2015,12,09,07,22,996.40
2015,12,09,07,23,996.40
2015,12,09,07,24,996.40
2015,12,09,07,26,996.40
2015,12,09,07,27,996.40
2015,12,09,07,28,996.40
2015,12,09,07,29,996.80
2015,12,09,07,30,996.80
2015,12,09,07,31,996.80
2015,12,09,07,32,996.80
2015,12,09,07,33,996.80
2015,12,09,07,34,996.80
2015,12,09,07,35,996.80
2015,12,09,07,36,996.80
2015,12,09,07,37,996.80
2015,12,09,07,38,996.80
2015,12,09,07,39,996.80
2015,12,09,07,40,996.80
2015,12,09,07,41,996.80
2015,12,09,07,42,996.80
2015,12,09,07,43,996.80
2015,12,09,07,44,996.90
2015,12,09,07,47,996.90
2015,12,09,07,48,996.90
2015,12,09,07,49,996.90
2015,12,09,07,50,996.90
2015,12,09,07,51,996.90
2015,12,09,07,52,996.90
2015,12,09,07,53,996.90
2015,12,09,07,54,996.90
2015,12,09,07,55,996.90
2015,12,09,07,56,996.90
2015,12,09,07,57,996.90
2015,12,09,07,58,996.90
2015,12,09,07,59,997.40
2015,12,09,08,00,997.40
2015,12,09,08,01,997.40
2015,12,09,08,02,997.40
2015,12,09,08,03,997.40
2015,12,09,08,04,997.40
2015,12,09,08,05,997.40
2015,12,09,08,06,997.40
2015,12,09,08,07,997.40
2015,12,09,08,08,997.40
2015,12,09,08,09,997.40
2015,12,09,08,10,997.40
2015,12,09,08,11,997.40
2015,12,09,08,12,997.40
2015,12,09,08,13,997.40
2015,12,09,08,15,998.10
2015,12,09,08,16,998.10
2015,12,09,08,17,998.10
2015,12,09,08,18,998.10
2015,12,09,08,19,998.10
2015,12,09,08,20,998.10
2015,12,09,08,21,998.10
2015,12,09,08,22,998.10
2015,12,09,08,23,998.10
2015,12,09,08,24,998.10
2015,12,09,08,25,998.10
2015,12,09,08,26,998.10
2015,12,09,08,27,998.10
2015,12,09,08,28,998.10
2015,12,09,08,29,998.40
2015,12,09,08,31,998.40
2015,12,09,08,32,998.40
2015,12,09,08,33,998.40
2015,12,09,08,34,998.40
2015,12,09,08,36,998.40
2015,12,09,08,37,998.40
2015,12,09,08,38,998.40
2015,12,09,08,39,998.40
2015,12,09,08,40,998.40
2015,12,09,08,41,998.40
2015,12,09,08,42,998.40
2015,12,09,08,43,998.40
2015,12,09,08,45,999.10
2015,12,09,08,46,999.10
2015,12,09,08,47,999.10
2015,12,09,08,48,999.10
2015,12,09,08,49,999.10
2015,12,09,08,50,999.10
2015,12,09,08,51,999.10
2015,12,09,08,52,999.10
2015,12,09,08,53,999.10
2015,12,09,08,54,999.10
2015,12,09,08,55,999.10
2015,12,09,08,56,999.10
2015,12,09,08,57,999.10
2015,12,09,08,58,999.10
2015,12,09,08,59,999.90
2015,12,09,09,02,999.90
2015,12,09,09,03,999.90
2015,12,09,09,04,999.90
2015,12,09,09,05,999.90
2015,12,09,09,07,999.90
2015,12,09,09,08,999.90
2015,12,09,09,09,999.90
2015,12,09,09,10,999.90
2015,12,09,09,11,999.90
2015,12,09,09,12,999.90
2015,12,09,09,13,999.90
2015,12,09,09,15,1000.30
2015,12,09,09,16,1000.30
2015,12,09,09,17,1000.30
2015,12,09,09,18,1000.30
2015,12,09,09,19,1000.30
2015,12,09,09,20,1000.30
2015,12,09,09,21,1000.30
2015,12,09,09,23,1000.30
2015,12,09,09,24,1000.30
2015,12,09,09,26,1000.30
2015,12,09,09,29,1000.90
2015,12,09,09,30,1000.90
2015,12,09,09,31,1000.90
2015,12,09,09,32,1000.90
2015,12,09,09,33,1000.90
2015,12,09,09,35,1000.90
2015,12,09,09,37,1000.90
2015,12,09,09,38,1000.90
2015,12,09,09,39,1000.90
2015,12,09,09,40,1000.90
2015,12,09,09,41,1000.90
2015,12,09,09,43,1000.90
2015,12,09,09,44,1000.50
2015,12,09,09,45,1000.50
2015,12,09,09,46,1000.50
2015,12,09,09,47,1000.50
2015,12,09,09,48,1000.50
2015,12,09,09,49,1000.50
2015,12,09,09,50,1000.50
2015,12,09,09,51,1000.50
2015,12,09,09,52,1000.50
2015,12,09,09,53,1000.50
2015,12,09,09,54,1000.50
2015,12,09,09,55,1000.50
2015,12,09,09,56,1000.50
2015,12,09,09,57,1000.50
2015,12,09,09,58,1000.50
2015,12,09,09,59,1001.30
2015,12,09,10,02,1001.30
2015,12,09,10,03,1001.30
2015,12,09,10,04,1001.30
2015,12,09,10,05,1001.30
2015,12,09,10,06,1001.30
2015,12,09,10,07,1001.30
2015,12,09,10,08,1001.30
2015,12,09,10,09,1001.30
2015,12,09,10,10,1001.30
2015,12,09,10,11,1001.30
2015,12,09,10,12,1001.30
2015,12,09,10,13,1001.30
2015,12,09,10,14,1001.90
2015,12,09,10,15,1001.90
2015,12,09,10,16,1001.90
2015,12,09,10,18,1001.90
2015,12,09,10,19,1001.90
2015,12,09,10,20,1001.90
2015,12,09,10,21,1001.90
2015,12,09,10,22,1001.90
2015,12,09,10,23,1001.90
2015,12,09,10,24,1001.90
2015,12,09,10,25,1001.90
2015,12,09,10,26,1001.90
2015,12,09,10,27,1001.90
2015,12,09,10,28,1001.90
2015,12,09,10,29,1002.40
2015,12,09,10,30,1002.40
2015,12,09,10,31,1002.40
2015,12,09,10,32,1002.40
2015,12,09,10,33,1002.40
2015,12,09,10,34,1002.40
2015,12,09,10,35,1002.40
2015,12,09,10,36,1002.40
2015,12,09,10,39,1002.40
2015,12,09,10,40,1002.40
2015,12,09,10,41,1002.40
2015,12,09,10,42,1002.40
2015,12,09,10,44,1002.70
2015,12,09,10,45,1002.70
2015,12,09,10,46,1002.70
2015,12,09,10,47,1002.70
2015,12,09,10,48,1002.70
2015,12,09,10,49,1002.70
2015,12,09,10,50,1002.70
2015,12,09,10,51,1002.70
2015,12,09,10,52,1002.70
2015,12,09,10,53,1002.70
2015,12,09,10,54,1002.70
2015,12,09,10,55,1002.70
2015,12,09,10,56,1002.70
2015,12,09,10,58,1002.70
2015,12,09,11,00,1003.10
2015,12,09,11,01,1003.10
2015,12,09,11,02,1003.10
2015,12,09,11,03,1003.10
2015,12,09,11,04,1003.10
2015,12,09,11,05,1003.10
2015,12,09,11,06,1003.10
2015,12,09,11,07,1003.10
2015,12,09,11,08,1003.10
2015,12,09,11,09,1003.10
2015,12,09,11,10,1003.10
2015,12,09,11,11,1003.10
2015,12,09,11,12,1003.10
2015,12,09,11,13,1003.10
2015,12,09,11,14,1003.60
2015,12,09,11,15,1003.60
2015,12,09,11,16,1003.60
2015,12,09,11,19,1003.60
2015,12,09,11,20,1003.60
2015,12,09,11,21,1003.60
2015,12,09,11,22,1003.60
2015,12,09,11,23,1003.60
2015,12,09,11,24,1003.60
2015,12,09,11,25,1003.60
2015,12,09,11,26,1003.60
2015,12,09,11,27,1003.60
2015,12,09,11,28,1003.60
2015,12,09,11,29,1003.80
2015,12,09,11,30,1003.80
2015,12,09,11,31,1003.80
2015,12,09,11,32,1003.80
2015,12,09,11,33,1003.80
2015,12,09,11,34,1003.80
2015,12,09,11,35,1003.80
2015,12,09,11,36,1003.80
2015,12,09,11,38,1003.80
2015,12,09,11,39,1003.80
2015,12,09,11,40,1003.80
2015,12,09,11,41,1003.80
2015,12,09,11,42,1003.80
2015,12,09,11,43,1003.80
2015,12,09,11,44,1004.00
2015,12,09,11,46,1004.00
2015,12,09,11,47,1004.00
2015,12,09,11,48,1004.00
2015,12,09,11,49,1004.00
2015,12,09,11,50,1004.00
2015,12,09,11,51,1004.00
2015,12,09,11,52,1004.00
2015,12,09,11,53,1004.00
2015,12,09,11,54,1004.00
2015,12,09,11,55,1004.00
2015,12,09,11,57,1004.00
2015,12,09,11,58,1004.00
2015,12,09,11,59,1004.50
2015,12,09,12,00,1004.50
2015,12,09,12,01,1004.50
2015,12,09,12,02,1004.50
2015,12,09,12,03,1004.50
2015,12,09,12,04,1004.50
2015,12,09,12,05,1004.50
2015,12,09,12,06,1004.50
2015,12,09,12,07,1004.50
2015,12,09,12,08,1004.50
2015,12,09,12,09,1004.50
2015,12,09,12,10,1004.50
2015,12,09,12,11,1004.50
2015,12,09,12,12,1004.50
2015,12,09,12,13,1004.50
2015,12,09,12,14,1004.70
2015,12,09,12,15,1004.70
2015,12,09,12,16,1004.70
2015,12,09,12,17,1004.70
2015,12,09,12,18,1004.70
2015,12,09,12,19,1004.70
2015,12,09,12,20,1004.70
2015,12,09,12,21,1004.70
2015,12,09,12,22,1004.70
2015,12,09,12,23,1004.70
2015,12,09,12,25,1004.70
2015,12,09,12,26,1004.70
2015,12,09,12,27,1004.70
2015,12,09,12,28,1004.70
2015,12,09,12,30,1005.20
2015,12,09,12,31,1005.20
2015,12,09,12,32,1005.20
2015,12,09,12,33,1005.20
2015,12,09,12,34,1005.20
2015,12,09,12,37,1005.20
2015,12,09,12,38,1005.20
2015,12,09,12,39,1005.20
2015,12,09,12,40,1005.20
2015,12,09,12,41,1005.20
2015,12,09,12,42,1005.20
2015,12,09,12,43,1005.20
2015,12,09,12,44,1005.50
2015,12,09,12,45,1005.50
2015,12,09,12,47,1005.50
2015,12,09,12,49,1005.50
2015,12,09,12,50,1005.50
2015,12,09,12,51,1005.50
2015,12,09,12,52,1005.50
2015,12,09,12,53,1005.50
2015,12,09,12,54,1005.50
2015,12,09,12,55,1005.50
2015,12,09,12,56,1005.50
2015,12,09,12,58,1005.50
2015,12,09,12,59,1005.70
2015,12,09,13,00,1005.70
2015,12,09,13,01,1005.70
2015,12,09,13,02,1005.70
2015,12,09,13,03,1005.70
2015,12,09,13,04,1005.70
2015,12,09,13,05,1005.70
2015,12,09,13,06,1005.70
2015,12,09,13,07,1005.70
2015,12,09,13,10,1005.70
2015,12,09,13,11,1005.70
2015,12,09,13,12,1005.70
2015,12,09,13,13,1005.70
2015,12,09,13,14,1006.10
2015,12,09,13,15,1006.10
2015,12,09,13,16,1006.10
2015,12,09,13,17,1006.10
2015,12,09,13,18,1006.10
2015,12,09,13,19,1006.10
2015,12,09,13,20,1006.10
2015,12,09,13,21,1006.10
2015,12,09,13,22,1006.10
2015,12,09,13,23,1006.10
2015,12,09,13,24,1006.10
2015,12,09,13,25,1006.10
2015,12,09,13,26,1006.10
2015,12,09,13,27,1006.10
2015,12,09,13,28,1006.10
2015,12,09,13,29,1006.50
2015,12,09,13,30,1006.50
2015,12,09,13,31,1006.50
2015,12,09,13,32,1006.50
2015,12,09,13,33,1006.50
2015,12,09,13,34,1006.50
2015,12,09,13,35,1006.50
2015,12,09,13,36,1006.50
2015,12,09,13,37,1006.50
2015,12,09,13,38,1006.50
2015,12,09,13,39,1006.50
2015,12,09,13,40,1006.50
2015,12,09,13,41,1006.50
2015,12,09,13,42,1006.50
2015,12,09,13,43,1006.50
2015,12,09,13,44,1006.70
2015,12,09,13,45,1006.70
2015,12,09,13,46,1006.70
2015,12,09,13,47,1006.70
2015,12,09,13,48,1006.70
2015,12,09,13,49,1006.70
2015,12,09,13,50,1006.70
2015,12,09,13,51,1006.70
2015,12,09,13,52,1006.70
2015,12,09,13,54,1006.70
2015,12,09,13,55,1006.70
2015,12,09,13,59,1006.40
2015,12,09,14,00,1006.40
2015,12,09,14,01,1006.40
2015,12,09,14,02,1006.40
2015,12,09,14,03,1006.40
2015,12,09,14,06,1006.40
2015,12,09,14,07,1006.40
2015,12,09,14,08,1006.40
2015,12,09,14,09,1006.40
2015,12,09,14,10,1006.40
2015,12,09,14,11,1006.40
2015,12,09,14,12,1006.40
2015,12,09,14,13,1006.40
2015,12,09,14,14,1006.70
2015,12,09,14,15,1006.70
2015,12,09,14,16,1006.70
2015,12,09,14,17,1006.70
2015,12,09,14,18,1006.70
2015,12,09,14,19,1006.70
2015,12,09,14,21,1006.70
2015,12,09,14,22,1006.70
2015,12,09,14,23,1006.70
2015,12,09,14,24,1006.70
2015,12,09,14,26,1006.70
2015,12,09,14,27,1006.70
2015,12,09,14,28,1006.70
2015,12,09,14,31,1006.70
2015,12,09,14,32,1006.70
2015,12,09,14,33,1006.70
2015,12,09,14,34,1006.70
2015,12,09,14,35,1006.70
2015,12,09,14,38,1006.70
2015,12,09,14,39,1006.70
2015,12,09,14,40,1006.70
2015,12,09,14,42,1006.70
2015,12,09,14,43,1006.70
2015,12,09,14,45,1007.10
2015,12,09,14,46,1007.10
2015,12,09,14,47,1007.10
2015,12,09,14,48,1007.10
2015,12,09,14,49,1007.10
2015,12,09,14,50,1007.10
2015,12,09,14,51,1007.10
2015,12,09,14,52,1007.10
2015,12,09,14,53,1007.10
2015,12,09,14,55,1007.10
2015,12,09,14,56,1007.10
2015,12,09,14,57,1007.10
2015,12,09,14,58,1007.10
2015,12,09,14,59,1007.30
2015,12,09,15,00,1007.30
2015,12,09,15,01,1007.30
2015,12,09,15,04,1007.30
2015,12,09,15,06,1007.30
2015,12,09,15,08,1007.30
2015,12,09,15,09,1007.30
2015,12,09,15,10,1007.30
2015,12,09,15,11,1007.30
2015,12,09,15,12,1007.30
2015,12,09,15,13,1007.30
2015,12,09,15,14,1007.70
2015,12,09,15,15,1007.70
2015,12,09,15,16,1007.70
2015,12,09,15,17,1007.70
2015,12,09,15,18,1007.70
2015,12,09,15,19,1007.70
2015,12,09,15,20,1007.70
2015,12,09,15,21,1007.70
2015,12,09,15,22,1007.70
2015,12,09,15,23,1007.70
2015,12,09,15,24,1007.70
2015,12,09,15,25,1007.70
2015,12,09,15,26,1007.70
2015,12,09,15,27,1007.70
2015,12,09,15,28,1007.70
2015,12,09,15,29,1007.40
2015,12,09,15,30,1007.40
2015,12,09,15,31,1007.40
2015,12,09,15,32,1007.40
2015,12,09,15,33,1007.40
2015,12,09,15,34,1007.40
2015,12,09,15,35,1007.40
2015,12,09,15,36,1007.40
2015,12,09,15,37,1007.40
2015,12,09,15,38,1007.40
2015,12,09,15,39,1007.40
2015,12,09,15,40,1007.40
2015,12,09,15,42,1007.40
2015,12,09,15,43,1007.40
2015,12,09,15,44,1007.60
2015,12,09,15,45,1007.60
2015,12,09,15,46,1007.60
2015,12,09,15,47,1007.60
2015,12,09,15,48,1007.60
2015,12,09,15,50,1007.60
2015,12,09,15,51,1007.60
2015,12,09,15,52,1007.60
2015,12,09,15,53,1007.60
2015,12,09,15,54,1007.60
2015,12,09,15,55,1007.60
2015,12,09,15,56,1007.60
2015,12,09,15,57,1007.60
2015,12,09,15,58,1007.60
2015,12,09,15,59,1007.60
2015,12,09,16,00,1007.60
2015,12,09,16,01,1007.60
2015,12,09,16,02,1007.60
2015,12,09,16,03,1007.60
2015,12,09,16,04,1007.60
2015,12,09,16,05,1007.60
2015,12,09,16,06,1007.60
2015,12,09,16,07,1007.60
2015,12,09,16,08,1007.60
2015,12,09,16,09,1007.60
2015,12,09,16,10,1007.60
2015,12,09,16,11,1007.60
2015,12,09,16,12,1007.60
2015,12,09,16,13,1007.60
2015,12,09,16,14,1007.50
2015,12,09,16,17,1007.50
2015,12,09,16,18,1007.50
2015,12,09,16,19,1007.50
2015,12,09,16,20,1007.50
2015,12,09,16,21,1007.50
2015,12,09,16,22,1007.50
2015,12,09,16,23,1007.50
2015,12,09,16,24,1007.50
2015,12,09,16,25,1007.50
2015,12,09,16,26,1007.50
2015,12,09,16,27,1007.50
2015,12,09,16,28,1007.50
2015,12,09,16,29,1007.80
2015,12,09,16,30,1007.80
2015,12,09,16,31,1007.80
2015,12,09,16,32,1007.80
2015,12,09,16,33,1007.80
2015,12,09,16,34,1007.80
2015,12,09,16,35,1007.80
2015,12,09,16,36,1007.80
2015,12,09,16,37,1007.80
2015,12,09,16,38,1007.80
2015,12,09,16,39,1007.80
2015,12,09,16,40,1007.80
2015,12,09,16,41,1007.80
2015,12,09,16,42,1007.80
2015,12,09,16,43,1007.80
2015,12,09,16,45,1008.10
2015,12,09,16,46,1008.10
2015,12,09,16,47,1008.10
2015,12,09,16,48,1008.10
2015,12,09,16,50,1008.10
2015,12,09,16,51,1008.10
2015,12,09,16,52,1008.10
2015,12,09,16,53,1008.10
2015,12,09,16,54,1008.10
2015,12,09,16,55,1008.10
2015,12,09,16,56,1008.10
2015,12,09,16,57,1008.10
2015,12,09,16,58,1008.10
2015,12,09,16,59,1008.00
2015,12,09,17,00,1008.00
2015,12,09,17,01,1008.00
2015,12,09,17,02,1008.00
2015,12,09,17,03,1008.00
2015,12,09,17,04,1008.00
2015,12,09,17,05,1008.00
2015,12,09,17,06,1008.00
2015,12,09,17,07,1008.00
2015,12,09,17,08,1008.00
2015,12,09,17,09,1008.00
2015,12,09,17,10,1008.00
2015,12,09,17,11,1008.00
2015,12,09,17,12,1008.00
2015,12,09,17,13,1008.00
2015,12,09,17,14,1007.90
2015,12,09,17,15,1007.90
2015,12,09,17,16,1007.90
2015,12,09,17,17,1007.90
2015,12,09,17,18,1007.90
2015,12,09,17,19,1007.90
2015,12,09,17,20,1007.90
2015,12,09,17,22,1007.90
2015,12,09,17,23,1007.90
2015,12,09,17,24,1007.90
2015,12,09,17,25,1007.90
2015,12,09,17,26,1007.90
2015,12,09,17,27,1007.90
2015,12,09,17,28,1007.90
2015,12,09,17,29,1007.70
2015,12,09,17,30,1007.70
2015,12,09,17,31,1007.70
2015,12,09,17,32,1007.70
2015,12,09,17,33,1007.70
2015,12,09,17,34,1007.70
2015,12,09,17,35,1007.70
2015,12,09,17,36,1007.70
2015,12,09,17,37,1007.70
2015,12,09,17,38,1007.70
2015,12,09,17,39,1007.70
2015,12,09,17,40,1007.70
2015,12,09,17,41,1007.70
2015,12,09,17,44,1007.40
2015,12,09,17,45,1007.40
2015,12,09,17,46,1007.40
2015,12,09,17,47,1007.40
2015,12,09,17,48,1007.40
2015,12,09,17,49,1007.40
2015,12,09,17,51,1007.40
2015,12,09,17,52,1007.40
2015,12,09,17,53,1007.40
2015,12,09,17,54,1007.40
2015,12,09,17,55,1007.40
2015,12,09,17,56,1007.40
2015,12,09,17,57,1007.40
2015,12,09,17,58,1007.40
2015,12,09,17,59,1007.20
2015,12,09,18,01,1007.20
2015,12,09,18,02,1007.20
2015,12,09,18,03,1007.20
2015,12,09,18,05,1007.20
2015,12,09,18,06,1007.20
2015,12,09,18,08,1007.20
2015,12,09,18,09,1007.20
2015,12,09,18,10,1007.20
2015,12,09,18,11,1007.20
2015,12,09,18,12,1007.20